DECAYED

STARLINK-1612, 46164 (Decayed)

Orbit data source: Space-Track

STARLINK-1612, 46164 was a payload satellite owned by SpaceX/Seattle (US) in LEO that was launched on Tue, 18 Aug 2020 UTC via an FALCON 9 launch vehicle from the Air Force Eastern Test Range (AFETR). Payload-class satellites include a variety of spacecraft equipped with specific instruments for various scientific and technological missions. These include communications satellites like Starlink; space stations such as the ISS; scientific satellites like the Hubble; Earth observation satellites from companies like Planet Labs, Umbra, and HawkEye 360; GPS; miniature CubeSats for education and research; and military/defense satellites.

Not visible in the next 10 days
Identifier
46164, 2020-057AZ
Orbit
Decayed
Country
Flag of USUS
Related business
Manufacturer
SpaceX/Seattle
Mission
Decayed Commercial Communications
Bus & Motor
STARLINK, Unknown motor
Mass
260 kg wet, ~248 kg dry
Launch date (UTC)
2020-08-18 (6 years ago)
Launch vehicle
FALCON 9
Launch site
Air Force Eastern Test Range (AFETR)
Object type
Payload
Rocket body
Debris
Shape & HBR
Box + 1 Pan, 10.1 m
Radar Cross Section
13.562 m², Large (>1 m²)

Expand to show TLE details & history
Last TLE update: 2 months ago

TLE from 2 months ago
0 STARLINK-1612
1 46164U 20057AZ  26111.04737497  .09193419  12331-4  68278-3 0  9991
2 46164  53.0140 354.1495 0008195 259.6709 100.3413 16.39726241315561
Epoch: 2026-04-21T01:08Z
TLE epoch observation values (Epoch: 2026-04-21T01:08:13.197Z)
Latitude
-0.00004°
Longitude
127.96572°
Altitude
168.423 km
Speed
7.806 km/s
True Right ascension
23h 36m 35s
True Declination
0° 00' 00"
Sunlit
Object was in daylight at epoch
Visualization orbit readout
Latitude
Unknown
Longitude
Unknown
Altitude
Unknown
Speed
Unknown
Apparent Right ascension
Unknown
Apparent Declination
Unknown
Sunlit
N/A
Visualization observer readout
Local Sidereal Time
21:39:28
Azimuth
Unknown
Elevation
Unknown
Doppler factor
Unknown
Orbital elements
Apogee altitude
172.187 km
Perigee altitude
161.46 km
Semi-major axis
6,544.961 km
Eccentricity
0.00082
Inclination
53.014°
RAAN
354.1495°
Arg. of periapsis
259.6709°
True anomaly
100.43367°
Mean anomaly
100.3413°
Eccentric anomaly
100.38748°
Mean motion
4.09904 °/min
Orbital period
87.83 mins
BSTAR
0.00068278
Loading maneuver chart data...
Computing Atmospheric mass density...

Documentation

Showing up to 5 results
|